| time (UTC) | temp F | wind direction | speed MPH | gust MPH | rain 1hr in | rain 24hr in | rain mn in | humidity % | barometer mb |
| 20260901000028 | 84 | 196 | 0.0 | 3.0 | 0.00 | 0.06 | 0.05 | 76 | 1008.4 |
| 20260831234520 | 84 | 199 | 0.0 | 1.0 | 0.00 | 0.06 | 0.05 | 75 | 1008.1 |
| 20260831233023 | 84 | 199 | 0.0 | 0.0 | 0.00 | 0.06 | 0.05 | 74 | 1008.1 |
| 20260831231519 | 85 | 200 | 0.0 | 0.0 | 0.00 | 0.06 | 0.05 | 74 | 1008.1 |
| 20260831230019 | 85 | 200 | 0.0 | 0.0 | 0.00 | 0.06 | 0.05 | 72 | 1007.8 |
| 20260831224517 | 86 | 200 | 0.0 | 4.0 | 0.00 | 0.06 | 0.05 | 70 | 1007.9 |
| 20260831223017 | 86 | 240 | 0.0 | 3.0 | 0.00 | 0.06 | 0.05 | 69 | 1007.9 |
| 20260831221517 | 87 | 201 | 0.0 | 4.0 | 0.00 | 0.06 | 0.05 | 68 | 1007.9 |
| 20260831220016 | 88 | 200 | 2.0 | 5.0 | 0.00 | 0.06 | 0.05 | 66 | 1007.9 |
| 20260831214518 | 89 | 190 | 0.0 | 5.0 | 0.00 | 0.06 | 0.05 | 64 | 1008.1 |
| 20260831213014 | 90 | 193 | 1.0 | 6.0 | 0.00 | 0.06 | 0.05 | 62 | 1008.0 |
| 20260831211515 | 92 | 205 | 1.0 | 6.0 | 0.00 | 0.06 | 0.05 | 59 | 1007.8 |
| 20260831210013 | 92 | 314 | 1.0 | 4.0 | 0.00 | 0.06 | 0.05 | 60 | 1007.7 |
| 20260831204510 | 92 | 291 | 1.0 | 4.0 | 0.00 | 0.06 | 0.05 | 60 | 1007.8 |
| 20260831203008 | 91 | 240 | 0.0 | 3.0 | 0.00 | 0.06 | 0.05 | 60 | 1007.9 |
| 20260831201512 | 90 | 249 | 1.0 | 7.0 | 0.00 | 0.06 | 0.05 | 62 | 1007.7 |
| 20260831200001 | 89 | 288 | 1.0 | 7.0 | 0.00 | 0.06 | 0.05 | 64 | 1008.1 |
| 20260831194502 | 89 | 305 | 3.0 | 6.0 | 0.00 | 0.06 | 0.05 | 64 | 1007.9 |
| 20260831193100 | 89 | 290 | 2.0 | 5.0 | 0.00 | 0.06 | 0.05 | 63 | 1007.9 |
| 20260831191600 | 89 | 292 | 1.0 | 5.0 | 0.00 | 0.06 | 0.05 | 63 | 1008.0 |
| 20260831190054 | 87 | 282 | 2.0 | 5.0 | 0.00 | 0.06 | 0.05 | 64 | 1008.4 |
| 20260831184553 | 87 | 257 | 2.0 | 9.0 | 0.00 | 0.06 | 0.05 | 65 | 1008.4 |
| 20260831183049 | 86 | 208 | 0.0 | 7.0 | 0.00 | 0.06 | 0.05 | 66 | 1008.2 |
| 20260831181553 | 86 | 285 | 2.0 | 8.0 | 0.00 | 0.06 | 0.05 | 66 | 1008.2 |
| 20260831180045 | 85 | 302 | 1.0 | 7.0 | 0.00 | 0.06 | 0.05 | 67 | 1008.3 |
| 20260831180020 | 85 | 302 | 2.0 | 7.0 | 0.00 | 0.06 | 0.05 | 67 | 1008.3 |
| 20260831174549 | 85 | 267 | 1.0 | 8.0 | 0.00 | 0.06 | 0.05 | 67 | 1008.5 |
| 20260831173042 | 85 | 310 | 3.0 | 5.0 | 0.00 | 0.06 | 0.05 | 67 | 1008.6 |
| 20260831171540 | 84 | 200 | 2.0 | 6.0 | 0.00 | 0.06 | 0.05 | 66 | 1008.4 |
| 20260831170041 | 83 | 275 | 5.0 | 9.0 | 0.00 | 0.06 | 0.05 | 68 | 1008.6 |
| 20260831164535 | 83 | 283 | 2.0 | 7.0 | 0.00 | 0.06 | 0.05 | 68 | 1008.7 |
| 20260831163033 | 83 | 262 | 2.0 | 8.0 | 0.00 | 0.06 | 0.05 | 70 | 1008.8 |
| 20260831161532 | 82 | 194 | 0.0 | 8.0 | 0.00 | 0.06 | 0.05 | 71 | 1008.6 |
| 20260831160029 | 82 | 198 | 2.0 | 8.0 | 0.00 | 0.06 | 0.05 | 70 | 1009.0 |
| 20260831154526 | 82 | 315 | 2.0 | 8.0 | 0.00 | 0.06 | 0.05 | 70 | 1008.9 |
| 20260831153023 | 81 | 183 | 3.0 | 8.0 | 0.00 | 0.06 | 0.05 | 70 | 1008.9 |
| 20260831151519 | 80 | 326 | 1.0 | 7.0 | 0.00 | 0.06 | 0.05 | 73 | 1008.8 |
| 20260831150015 | 79 | 238 | 1.0 | 7.0 | 0.00 | 0.06 | 0.05 | 77 | 1008.9 |
| 20260831144512 | 78 | 219 | 0.0 | 6.0 | 0.00 | 0.06 | 0.05 | 79 | 1008.8 |
| 20260831143013 | 77 | 198 | 1.0 | 6.0 | 0.00 | 0.06 | 0.05 | 79 | 1008.8 |
| 20260831141506 | 76 | 258 | 0.0 | 5.0 | 0.00 | 0.06 | 0.05 | 82 | 1008.9 |
| 20260831140005 | 75 | 203 | 0.0 | 3.0 | 0.00 | 0.06 | 0.05 | 85 | 1009.2 |
| 20260831134559 | 74 | 132 | 0.0 | 4.0 | 0.00 | 0.06 | 0.05 | 88 | 1009.0 |
| 20260831133053 | 73 | 132 | 2.0 | 5.0 | 0.00 | 0.06 | 0.05 | 91 | 1008.8 |
| 20260831131550 | 72 | 133 | 3.0 | 7.0 | 0.00 | 0.06 | 0.05 | 91 | 1008.9 |
| 20260831130051 | 71 | 132 | 1.0 | 7.0 | 0.00 | 0.06 | 0.05 | 92 | 1009.2 |
| 20260831124547 | 71 | 134 | 1.0 | 5.0 | 0.00 | 0.06 | 0.05 | 92 | 1009.1 |
| 20260831123043 | 71 | 131 | 4.0 | 8.0 | 0.00 | 0.06 | 0.05 | 92 | 1009.3 |
| 20260831121541 | 71 | 130 | 4.0 | 8.0 | 0.00 | 0.06 | 0.05 | 92 | 1009.0 |
| 20260831120038 | 70 | 131 | 4.0 | 8.0 | 0.00 | 0.06 | 0.05 | 93 | 1009.0 |
| 20260831114538 | 70 | 138 | 4.0 | 9.0 | 0.00 | 0.06 | 0.05 | 94 | 1009.0 |
| 20260831113046 | 69 | 130 | 7.0 | 12.0 | 0.00 | 0.06 | 0.05 | 95 | 1008.9 |
| 20260831111534 | 69 | 136 | 4.0 | 9.0 | 0.00 | 0.06 | 0.05 | 95 | 1009.0 |
| 20260831110032 | 69 | 140 | 5.0 | 9.0 | 0.00 | 0.06 | 0.05 | 95 | 1008.9 |
| 20260831104536 | 69 | 128 | 4.0 | 9.0 | 0.00 | 0.06 | 0.05 | 95 | 1009.1 |
| 20260831103028 | 70 | 128 | 7.0 | 10.0 | 0.03 | 0.06 | 0.05 | 96 | 1009.1 |
| 20260831101524 | 69 | 132 | 3.0 | 7.0 | 0.04 | 0.06 | 0.05 | 96 | 1009.5 |
| 20260831100026 | 69 | 111 | 0.0 | 3.0 | 0.04 | 0.06 | 0.05 | 96 | 1009.7 |
| 20260831094521 | 69 | 138 | 0.0 | 0.0 | 0.04 | 0.06 | 0.05 | 96 | 1010.0 |
| 20260831093020 | 69 | 138 | 0.0 | 0.0 | 0.01 | 0.03 | 0.02 | 96 | 1010.3 |
| 20260831091520 | 69 | 138 | 0.0 | 3.0 | 0.00 | 0.02 | 0.01 | 96 | 1010.3 |
| 20260831090019 | 69 | 149 | 0.0 | 2.0 | 0.00 | 0.02 | 0.01 | 96 | 1010.0 |
| 20260831084524 | 69 | 149 | 0.0 | 0.0 | 0.00 | 0.02 | 0.01 | 96 | 1010.2 |
| 20260831083018 | 69 | 149 | 0.0 | 3.0 | 0.00 | 0.02 | 0.01 | 96 | 1010.3 |
| 20260831081517 | 69 | 150 | 0.0 | 2.0 | 0.00 | 0.02 | 0.01 | 96 | 1010.2 |
| 20260831080018 | 69 | 168 | 0.0 | 2.0 | 0.00 | 0.02 | 0.01 | 96 | 1010.3 |
| 20260831074515 | 69 | 168 | 0.0 | 3.0 | 0.00 | 0.02 | 0.01 | 96 | 1010.1 |
| 20260831073014 | 69 | 184 | 0.0 | 2.0 | 0.00 | 0.02 | 0.01 | 96 | 1010.4 |
| 20260831071512 | 69 | 191 | 0.0 | 3.0 | 0.00 | 0.02 | 0.01 | 95 | 1010.3 |
| 20260831070010 | 70 | 200 | 0.0 | 2.0 | 0.01 | 0.04 | 0.01 | 95 | 1010.7 |
| 20260831064506 | 70 | 200 | 0.0 | 0.0 | 0.01 | 0.04 | 0.01 | 95 | 1011.1 |
| 20260831063002 | 70 | 202 | 0.0 | 4.0 | 0.01 | 0.04 | 0.01 | 95 | 1011.7 |
| 20260831061501 | 70 | 134 | 0.0 | 0.0 | 0.01 | 0.04 | 0.01 | 95 | 1011.8 |
| 20260831060001 | 70 | 133 | 0.0 | 1.0 | 0.00 | 0.03 | 0.00 | 94 | 1011.9 |
| 20260831054502 | 70 | 133 | 0.0 | 0.0 | 0.00 | 0.03 | 0.00 | 94 | 1012.0 |
| 20260831053131 | 70 | 133 | 0.0 | 0.0 | 0.00 | 0.03 | 0.00 | 93 | 1011.9 |
| 20260831051604 | 70 | 133 | 0.0 | 0.0 | 0.00 | 0.03 | 0.00 | 93 | 1012.0 |
| 20260831050056 | 70 | 133 | 0.0 | 0.0 | 0.01 | 0.03 | 0.03 | 93 | 1011.9 |
| 20260831044559 | 71 | 133 | 0.0 | 0.0 | 0.01 | 0.03 | 0.03 | 92 | 1011.9 |
| 20260831043054 | 71 | 133 | 0.0 | 0.0 | 0.01 | 0.03 | 0.03 | 92 | 1011.4 |
| 20260831041601 | 71 | 133 | 0.0 | 0.0 | 0.01 | 0.03 | 0.03 | 92 | 1011.2 |
| 20260831040054 | 71 | 133 | 0.0 | 2.0 | 0.00 | 0.02 | 0.02 | 91 | 1011.2 |
| 20260831034555 | 71 | 133 | 0.0 | 0.0 | 0.00 | 0.02 | 0.02 | 90 | 1011.5 |
| 20260831033106 | 71 | 133 | 0.0 | 3.0 | 0.00 | 0.02 | 0.02 | 90 | 1011.4 |
| 20260831031553 | 72 | 133 | 0.0 | 1.0 | 0.00 | 0.02 | 0.02 | 90 | 1011.5 |
| 20260831030052 | 71 | 133 | 0.0 | 3.0 | 0.00 | 0.02 | 0.02 | 90 | 1011.2 |
| 20260831024551 | 72 | 132 | 0.0 | 2.0 | 0.00 | 0.02 | 0.02 | 89 | 1011.2 |
| 20260831023050 | 72 | 132 | 2.0 | 4.0 | 0.00 | 0.02 | 0.02 | 88 | 1011.1 |
| 20260831021550 | 72 | 134 | 1.0 | 5.0 | 0.00 | 0.02 | 0.02 | 88 | 1011.0 |
| 20260831020106 | 72 | 132 | 3.0 | 5.0 | 0.00 | 0.02 | 0.02 | 87 | 1010.8 |
| 20260831014549 | 72 | 126 | 2.0 | 4.0 | 0.00 | 0.02 | 0.02 | 86 | 1010.8 |
| 20260831013048 | 72 | 28 | 0.0 | 2.0 | 0.00 | 0.02 | 0.02 | 85 | 1011.0 |
| 20260831011548 | 73 | 27 | 0.0 | 0.0 | 0.00 | 0.02 | 0.02 | 86 | 1011.1 |
| 20260831010049 | 74 | 27 | 0.0 | 0.0 | 0.00 | 0.02 | 0.02 | 86 | 1010.8 |
| 20260831004553 | 74 | 27 | 0.0 | 0.0 | 0.00 | 0.02 | 0.02 | 85 | 1010.6 |
| 20260831003047 | 75 | 27 | 0.0 | 2.0 | 0.00 | 0.02 | 0.02 | 85 | 1010.5 |
| 20260831001546 | 75 | 27 | 0.0 | 1.0 | 0.00 | 0.02 | 0.02 | 84 | 1010.5 |